Temp
68 71 68 67 56 50 46 55 66 69 73 76 77 76 75 76 72 64 81 85 85 80 79 79 79 80 80 79 79 78 78 78 78 78 78 78 79 79 79 79 79 80 80 80 80 80 80 80 80
69 72 66 59 50 43 50 59 63 72 78 80 78 75 76 75 82 82 79 84 84 80 79 79 80 79 79 79 78 78 78 78 78 78 78 78 78 78 78 79 79 80 80 80 80 80 80 80 80
68 70 59 53 46 50 56 61 66 73 76 76 77 82 81 78 83 81 81 83 81 79 79 79 79 79 79 79 78 78 78 78 78 78 78 78 78 78 78 79 79 80 80 80 80 80 80 79 79
66 61 57 47 46 54 63 63 68 69 74 78 78 76 84 86 84 83 83 83 80 79 79 79 79 79 79 79 78 78 78 78 78 78 78 78 78 78 78 78 79 80 80 80 80 79 78 78 78
61 52 44 40 46 54 63 69 66 66 70 74 76 76 78 84 83 82 81 82 80 78 79 79 79 79 79 79 79 78 78 78 78 78 78 78 78 77 78 78 79 79 80 80 79 78 78 77 78
53 50 38 46 48 61 66 66 66 66 71 73 73 76 77 81 79 80 81 80 81 78 78 79 79 79 78 78 78 78 78 78 78 78 78 78 77 77 78 78 78 78 79 79 78 78 77 77 77
50 44 39 39 48 56 61 68 66 65 67 72 79 71 77 78 80 81 78 81 80 79 78 79 79 78 78 78 78 77 77 77 77 77 77 77 77 77 77 77 78 78 78 78 77 77 77 76 76
54 48 40 45 52 54 62 66 69 69 69 78 83 71 71 78 81 80 79 78 77 77 77 78 78 79 76 76 78 77 77 77 76 76 76 77 77 77 77 76 76 77 77 77 77 76 76 76 76
58 44 43 50 50 55 56 58 69 78 76 80 80 78 83 81 81 78 74 74 74 76 75 76 78 77 76 76 77 77 78 77 77 76 76 75 72 73 75 75 76 77 77 77 76 76 76 76 76
51 45 49 56 57 55 57 56 65 71 70 74 76 80 86 80 78 73 72 71 72 73 75 76 77 75 78 79 78 74 76 74 73 73 73 71 71 71 74 75 76 77 77 77 76 76 76 76 70
50 49 58 57 61 62 60 60 67 65 66 72 73 75 82 78 77 74 74 73 74 73 75 75 75 76 78 79 77 76 75 75 73 72 71 70 71 71 71 71 72 72 75 72 73 72 71 70 69
45 55 60 58 65 63 58 63 63 66 69 77 78 77 80 76 76 75 75 75 73 72 73 75 75 77 78 78 77 77 76 75 72 72 71 69 68 68 69 68 69 70 70 70 69 69 69 69 70
47 52 57 62 63 61 63 62 62 65 71 75 78 78 78 78 78 78 78 77 74 72 72 74 74 74 74 76 75 75 73 72 71 71 70 69 67 67 68 68 69 70 69 69 68 68 69 69 70
52 54 57 59 56 57 62 63 65 66 71 73 74 72 74 78 79 79 77 75 74 73 72 72 72 72 72 71 71 71 70 71 71 70 71 70 68 69 69 69 70 69 70 70 69 69 69 69 69
54 47 53 56 54 56 59 57 60 69 71 70 71 71 73 75 76 78 78 75 75 72 72 71 69 71 71 71 72 73 73 73 72 73 72 72 71 69 70 69 69 71 70 70 69 69 69 68 70
48 47 43 54 56 58 60 50 64 67 67 67 70 71 72 73 74 75 79 76 75 72 71 72 73 71 70 70 73 75 75 75 75 74 74 73 71 70 69 70 70 71 71 70 69 69 68 67 67
41 33 38 44 55 57 56 52 63 66 66 65 66 68 70 66 68 74 74 76 73 72 71 72 72 72 71 71 72 72 74 74 71 72 73 74 73 72 71 71 71 72 71 70 70 68 68 67 67
35 34 40 41 50 55 54 53 60 62 66 65 65 67 67 68 63 70 72 74 73 73 73 73 74 71 69 70 69 69 71 72 72 71 75 74 73 73 71 73 72 71 69 69 68 68 67 66 66
46 42 41 46 54 51 52 55 59 61 62 62 63 65 65 66 63 68 71 72 72 72 73 72 67 66 67 69 70 68 68 69 71 71 73 74 72 73 72 71 70 70 69 68 68 67 66 64 64
47 41 41 48 54 51 51 52 58 60 61 63 64 63 65 64 61 66 70 70 71 71 72 70 69 66 67 68 69 70 69 71 71 72 73 73 73 72 73 71 69 70 69 68 67 65 63 63 63
44 43 42 42 50 54 50 47 52 59 63 65 65 66 66 64 62 63 66 67 70 70 69 68 68 66 66 67 68 69 69 69 69 70 71 71 72 73 72 70 69 69 69 67 66 65 64 62 62
36 47 49 47 44 35 49 33 47 55 59 63 65 62 65 65 65 63 64 64 66 68 69 69 68 65 64 66 67 67 67 68 68 69 70 71 72 72 71 70 69 69 67 66 65 65 64 62 60
41 49 47 48 41 38 43 36 42 52 53 59 64 67 62 65 66 64 64 65 67 68 67 67 66 65 65 67 67 67 67 68 69 69 70 69 69 69 70 68 67 67 67 66 65 64 63 62 61
49 45 44 44 43 31 39 39 38 45 55 61 64 64 63 64 64 66 65 67 66 67 65 66 66 66 65 66 68 67 67 68 67 67 67 67 67 67 67 67 67 65 65 64 63 61 61 60 60
41 36 25 27 27 27 42 39 43 51 57 62 64 61 63 64 63 61 65 67 68 65 65 65 66 65 67 67 67 67 65 67 67 65 67 66 65 64 63 64 63 62 62 62 62 60 58 56 56
37 37 26 23 25 29 44 36 44 59 63 62 64 63 63 62 63 61 65 67 71 71 68 69 68 67 67 68 67 66 67 68 66 66 67 65 63 63 65 63 62 62 63 61 58 54 55 54 54
38 35 41 32 37 29 36 46 53 57 59 59 62 62 64 65 60 61 65 66 68 67 69 70 68 66 66 64 63 63 65 66 65 64 63 62 61 64 62 61 60 59 58 55 54 53 51 51 50
41 47 34 34 23 26 34 42 42 47 54 56 56 59 60 60 58 61 65 64 64 67 67 66 65 63 62 61 60 60 60 60 59 58 57 56 58 60 58 56 55 54 53 52 51 49 49 48 47
40 36 36 38 32 27 32 35 47 46 48 51 50 55 56 54 60 64 64 66 67 67 65 63 61 60 59 60 59 60 60 59 57 56 57 59 58 56 55 54 53 51 50 49 48 47 48 47 45
47 40 38 29 29 32 31 33 49 48 49 49 51 53 53 60 64 65 67 65 64 62 61 59 58 58 58 59 59 59 60 59 57 56 55 55 53 53 52 52 51 50 49 47 46 46 46 45 45
MSLP
1009.46 1009.55 1009.87 1009.99 1011.09 1010.97 1009.64 1007.72 1005.83 1004.61 1003.79 1002.87 1002.66 1002.97 1002.51 1002.25 1002.46 1002.08 999.76 1000.25 1000.89 1001.79 1003.83 1005.27 1005.99 1006.55 1006.71 1007.08 1007.68 1008.28 1008.61 1009.01 1009.36 1009.88 1010.31 1010.66 1010.93 1011.25 1011.44 1011.61 1011.81 1011.98 1012.26 1012.47 1012.69 1012.81 1012.85 1013.01 1013.14
1009.45 1009.58 1010.13 1010.58 1011.12 1010.74 1008.27 1006.45 1004.98 1004.02 1003.27 1002.46 1002.27 1002.21 1002.33 1002.00 1001.38 1000.37 1000.57 1001.05 1002.11 1003.22 1003.38 1005.03 1005.73 1006.55 1006.93 1007.27 1007.78 1008.36 1008.73 1009.07 1009.41 1009.87 1010.35 1010.75 1011.06 1011.28 1011.48 1011.71 1011.91 1012.03 1012.36 1012.64 1012.77 1012.92 1013.05 1013.20 1013.27
1009.53 1009.71 1010.52 1010.98 1010.62 1008.97 1006.84 1004.94 1004.15 1003.63 1003.36 1003.00 1002.42 1001.70 1001.57 1001.09 1000.55 1000.43 1000.78 1001.48 1002.68 1003.58 1003.98 1005.00 1005.81 1006.31 1007.08 1007.49 1008.03 1008.55 1008.98 1009.34 1009.76 1010.09 1010.60 1010.96 1011.30 1011.55 1011.75 1011.96 1012.19 1012.34 1012.48 1012.81 1013.03 1013.07 1013.16 1013.28 1013.39
1009.76 1010.56 1011.23 1010.73 1009.37 1007.05 1005.07 1004.49 1004.14 1003.57 1003.32 1002.67 1002.41 1001.63 1000.89 1000.39 1000.49 1000.43 1001.22 1001.79 1002.68 1003.43 1004.13 1004.84 1005.86 1006.50 1007.15 1007.59 1008.30 1008.82 1009.25 1009.49 1009.93 1010.30 1010.79 1011.17 1011.56 1011.75 1012.01 1012.28 1012.44 1012.60 1012.76 1012.93 1013.20 1013.29 1013.39 1013.57 1013.59
1010.15 1011.21 1011.53 1010.80 1008.83 1006.68 1004.85 1004.38 1004.04 1003.72 1003.16 1003.26 1002.74 1001.74 1001.05 1000.50 1000.53 1000.99 1001.40 1002.22 1003.14 1003.60 1004.54 1004.93 1005.69 1006.76 1007.21 1007.76 1008.42 1009.00 1009.41 1009.61 1010.04 1010.45 1010.82 1011.13 1011.52 1011.82 1012.03 1012.21 1012.35 1012.46 1012.70 1012.85 1013.04 1013.21 1013.29 1013.41 1013.68
1010.79 1011.46 1011.71 1010.24 1008.24 1006.40 1004.42 1004.38 1004.05 1003.66 1002.92 1003.63 1002.96 1002.27 1001.30 1000.77 1001.05 1002.09 1001.59 1002.32 1003.14 1003.83 1004.99 1005.45 1006.07 1006.67 1007.42 1007.96 1008.55 1008.99 1009.44 1009.76 1010.15 1010.54 1011.01 1011.27 1011.62 1011.94 1012.26 1012.48 1012.65 1012.71 1012.87 1012.92 1013.10 1013.33 1013.46 1013.56 1013.62
1010.51 1011.35 1010.46 1009.32 1007.68 1006.27 1004.18 1003.97 1003.94 1003.59 1003.19 1002.18 1002.59 1002.00 1001.40 1001.39 1001.44 1002.34 1003.37 1002.74 1003.53 1004.19 1004.93 1005.75 1006.38 1006.81 1007.48 1008.14 1008.73 1009.13 1009.58 1009.99 1010.43 1010.83 1011.29 1011.64 1011.98 1012.33 1012.62 1012.82 1013.00 1013.10 1013.16 1013.25 1013.33 1013.51 1013.57 1013.66 1013.65
1009.95 1010.39 1009.66 1008.40 1007.15 1004.81 1004.09 1003.81 1003.53 1003.30 1002.52 1002.03 1002.10 1001.81 1001.33 1000.70 1001.53 1002.57 1003.80 1004.16 1004.17 1004.72 1005.18 1005.77 1006.34 1006.78 1007.84 1008.54 1009.01 1009.45 1009.87 1010.21 1010.61 1011.03 1011.44 1011.82 1012.05 1012.38 1012.73 1012.90 1013.07 1013.15 1013.30 1013.36 1013.47 1013.61 1013.66 1013.62 1013.60
1009.08 1009.60 1008.09 1007.04 1006.59 1005.00 1004.04 1003.70 1003.09 1002.39 1002.12 1001.59 1001.48 1001.15 1000.39 1000.92 1001.51 1002.71 1004.31 1004.98 1004.92 1005.30 1005.56 1006.02 1006.39 1007.02 1007.95 1008.61 1009.18 1009.59 1009.89 1010.32 1010.73 1011.19 1011.58 1011.89 1012.19 1012.43 1012.63 1012.71 1012.77 1012.85 1012.90 1013.05 1013.18 1013.26 1013.36 1013.38 1013.40
1008.69 1008.01 1006.63 1005.91 1005.43 1004.61 1004.25 1003.94 1003.49 1002.84 1002.28 1001.36 1001.23 1000.88 1000.34 1000.64 1001.27 1002.16 1003.59 1004.61 1004.74 1005.26 1005.74 1006.08 1006.50 1007.02 1007.82 1008.39 1009.02 1009.57 1009.88 1010.44 1010.82 1011.20 1011.58 1011.91 1012.17 1012.49 1012.76 1012.79 1012.74 1012.79 1012.79 1012.92 1013.04 1013.04 1013.08 1013.13 1013.35
1007.60 1006.04 1006.07 1005.07 1004.78 1004.44 1004.32 1003.94 1003.53 1002.85 1001.99 1001.36 1001.29 1000.92 999.99 1000.15 1000.67 1001.62 1002.83 1003.26 1003.35 1004.69 1005.56 1006.34 1006.73 1006.97 1007.59 1008.31 1008.83 1009.54 1010.00 1010.46 1010.81 1011.13 1011.59 1011.85 1012.04 1012.30 1012.53 1012.68 1012.61 1012.77 1012.84 1013.00 1013.00 1013.12 1013.04 1013.06 1013.15
1007.24 1005.99 1005.56 1004.98 1004.76 1004.36 1003.98 1003.66 1002.96 1002.39 1001.19 1001.12 1001.08 1000.93 1000.44 1000.01 1000.42 1001.41 1002.63 1003.66 1004.04 1004.78 1005.46 1006.11 1006.57 1006.97 1007.45 1007.84 1008.66 1009.18 1009.86 1010.26 1010.73 1011.12 1011.52 1011.74 1012.04 1012.25 1012.38 1012.58 1012.65 1012.72 1012.75 1013.04 1013.00 1012.97 1012.91 1012.95 1012.97
1006.95 1006.00 1005.30 1005.02 1004.71 1004.12 1003.92 1003.41 1002.68 1001.20 1001.37 1000.97 1000.95 1000.86 1000.61 1000.30 1000.02 1000.51 1001.57 1002.84 1004.24 1004.86 1005.18 1005.68 1006.33 1006.87 1007.24 1007.69 1008.31 1008.95 1009.47 1009.98 1010.41 1010.97 1011.33 1011.56 1012.05 1012.29 1012.26 1012.34 1012.43 1012.47 1012.64 1012.75 1012.83 1012.76 1012.76 1012.70 1012.64
1006.34 1006.04 1005.52 1004.93 1004.52 1004.31 1003.97 1002.84 1002.28 1000.98 1000.96 1000.88 1000.88 1000.70 1000.35 1000.30 999.70 1000.43 1001.55 1002.65 1003.93 1004.47 1004.89 1005.48 1005.89 1006.42 1006.76 1007.23 1007.88 1008.59 1009.14 1009.41 1009.84 1010.29 1010.58 1010.90 1011.31 1011.75 1012.11 1012.30 1012.34 1012.35 1012.31 1012.25 1012.35 1012.37 1012.52 1012.40 1012.34
1006.30 1006.09 1005.40 1004.51 1004.34 1004.20 1004.06 1002.34 999.21 1001.26 1001.22 1000.83 1000.71 1000.44 1000.36 999.95 1000.41 1001.07 1001.11 1002.02 1002.80 1003.73 1004.42 1005.19 1005.56 1005.99 1006.48 1007.05 1007.50 1007.79 1008.02 1008.53 1009.11 1009.40 1009.86 1010.29 1010.62 1011.02 1011.44 1011.65 1012.04 1011.90 1012.01 1012.16 1012.34 1012.39 1012.52 1012.55 1012.50
1006.46 1005.91 1005.38 1003.43 1004.07 1003.92 1003.74 999.51 1000.20 1000.77 1000.93 1000.69 1000.57 1000.31 1000.32 999.98 1000.45 1000.84 1001.82 1002.15 1003.06 1003.92 1004.44 1004.97 1005.44 1005.85 1006.34 1006.76 1007.02 1007.14 1007.41 1007.71 1008.15 1008.59 1009.09 1009.67 1010.08 1010.49 1011.04 1011.28 1011.40 1011.72 1011.84 1011.99 1012.17 1012.29 1012.40 1012.41 1012.53
1006.92 1005.97 1004.87 1004.30 1003.40 1003.38 1002.67 999.86 1000.23 1000.51 1000.73 1000.51 1000.57 1000.39 1000.50 1000.74 1000.44 1000.39 1001.72 1001.92 1002.58 1003.46 1004.22 1004.75 1005.10 1005.45 1005.83 1006.08 1006.70 1007.17 1007.87 1008.24 1008.14 1008.64 1009.22 1009.65 1009.59 1009.71 1010.73 1011.24 1011.15 1011.20 1011.59 1011.68 1011.85 1012.11 1012.27 1012.49 1012.45
1005.93 1005.93 1005.03 1004.16 1003.28 1002.77 1002.14 1000.55 1000.37 1000.09 1000.19 1000.25 1000.39 1000.38 1000.64 1001.28 1000.74 1000.66 1001.10 1002.09 1002.72 1003.20 1003.91 1004.59 1004.97 1005.48 1006.06 1006.02 1006.56 1007.20 1007.84 1007.93 1007.66 1008.27 1008.70 1008.95 1009.49 1009.05 1009.90 1010.73 1010.95 1010.69 1011.54 1011.63 1011.75 1011.97 1012.28 1012.45 1012.49
1006.05 1005.71 1005.14 1004.48 1003.48 1002.95 1001.75 1000.89 1000.28 1000.33 1000.38 1000.18 999.84 1000.21 1000.64 1000.93 1001.50 1001.26 1001.62 1002.00 1002.89 1003.93 1004.20 1004.54 1004.88 1005.51 1005.93 1006.15 1006.67 1007.29 1007.39 1007.59 1007.76 1008.01 1008.55 1008.52 1009.36 1009.17 1009.61 1010.45 1011.00 1010.86 1011.17 1011.63 1011.55 1011.76 1012.16 1012.20 1012.50
1005.83 1005.59 1005.11 1004.50 1003.94 1003.08 1001.92 1000.76 1000.19 999.89 999.66 999.68 999.63 999.63 1000.24 1001.16 1002.10 1002.21 1002.30 1002.42 1002.69 1003.14 1003.82 1004.35 1004.85 1005.31 1005.51 1005.93 1006.19 1006.57 1006.77 1007.08 1007.56 1008.05 1008.48 1008.37 1008.83 1008.87 1009.43 1010.42 1010.93 1010.68 1011.06 1011.52 1011.76 1011.71 1012.00 1012.30 1012.49
1005.37 1005.17 1005.01 1004.71 1004.28 1003.14 1002.43 1000.92 999.98 999.04 998.94 998.94 998.89 998.64 999.41 1000.44 1001.49 1002.30 1002.63 1002.73 1002.93 1003.40 1003.69 1003.95 1004.35 1004.90 1005.59 1006.11 1006.21 1006.50 1006.96 1007.41 1007.89 1007.84 1008.22 1008.83 1009.04 1008.84 1009.77 1010.20 1010.37 1010.55 1010.94 1011.28 1011.66 1011.69 1011.93 1012.42 1012.50
1004.92 1005.00 1004.66 1004.67 1004.53 1003.94 1002.52 1001.27 999.70 999.02 998.35 998.50 998.36 998.67 998.90 999.73 1000.80 1001.57 1002.08 1002.79 1002.94 1002.84 1003.19 1003.64 1004.30 1004.88 1005.66 1005.98 1006.46 1006.64 1006.76 1007.36 1007.43 1007.49 1007.64 1008.19 1008.78 1009.53 1009.37 1010.43 1010.48 1010.62 1010.75 1011.21 1011.56 1011.68 1012.04 1012.37 1012.79
1004.21 1004.95 1005.02 1004.85 1004.57 1004.49 1003.07 1002.79 999.76 998.66 998.22 997.55 997.32 997.78 998.79 998.91 999.75 1000.82 1001.69 1001.97 1002.06 1002.76 1003.09 1003.39 1003.91 1004.60 1005.41 1005.86 1006.24 1006.68 1007.22 1007.58 1007.65 1007.89 1008.23 1009.29 1009.13 1008.97 1010.73 1011.03 1011.38 1011.57 1011.12 1011.60 1011.29 1011.92 1012.24 1012.46 1012.86
1004.25 1004.85 1005.21 1005.26 1005.14 1004.58 1002.97 1002.52 1000.02 998.43 997.01 996.22 996.47 997.52 998.30 998.57 999.05 999.89 1000.64 1001.23 1001.99 1002.58 1003.20 1003.50 1003.98 1004.39 1005.32 1005.94 1006.19 1006.85 1007.41 1007.82 1008.34 1009.01 1009.56 1009.61 1009.78 1010.07 1012.26 1011.85 1011.30 1011.30 1011.65 1011.68 1012.20 1012.19 1012.26 1012.89 1013.10
1004.12 1004.85 1005.61 1005.56 1005.32 1004.03 1002.58 1002.07 999.45 997.38 996.40 995.91 996.17 996.93 997.76 998.12 998.79 999.79 1000.50 1001.43 1002.13 1002.37 1002.93 1003.39 1004.16 1005.17 1005.93 1006.31 1006.41 1006.87 1007.36 1007.90 1008.88 1010.19 1010.31 1010.69 1010.44 1012.23 1012.17 1012.84 1011.39 1011.72 1012.02 1012.28 1012.66 1012.81 1013.17 1013.63 1013.98
1003.59 1004.29 1004.60 1004.28 1004.20 1003.47 1002.02 1000.36 997.86 996.26 996.01 995.99 996.06 996.42 997.05 997.64 998.24 998.99 999.80 1000.59 1001.27 1001.85 1002.37 1002.89 1004.55 1005.72 1006.41 1006.74 1006.81 1007.10 1007.48 1008.26 1008.96 1009.84 1009.02 1011.64 1012.91 1012.71 1012.62 1012.56 1011.23 1012.12 1012.54 1013.56 1013.75 1013.89 1014.02 1014.22 1014.34
1003.20 1003.57 1003.62 1003.93 1003.32 1002.71 1001.29 999.16 997.12 996.23 996.22 996.04 996.08 996.57 996.65 997.22 998.04 998.72 999.64 1000.32 1001.04 1001.65 1002.43 1003.11 1004.67 1006.32 1006.79 1007.12 1007.68 1008.23 1008.29 1008.72 1009.67 1010.74 1011.61 1012.28 1012.33 1011.86 1011.97 1012.21 1012.78 1013.52 1014.36 1014.82 1014.52 1014.38 1014.52 1014.61 1014.76
1002.18 1002.45 1003.63 1004.19 1003.30 1002.36 1000.73 998.73 997.14 996.33 996.14 996.38 996.42 996.59 996.91 997.21 997.95 998.87 999.50 1000.47 1001.54 1002.18 1002.92 1004.09 1005.25 1006.29 1007.26 1007.79 1008.45 1009.00 1009.88 1009.87 1010.57 1011.98 1012.50 1012.57 1012.31 1012.64 1013.31 1013.95 1014.13 1015.36 1015.18 1014.74 1014.77 1015.09 1015.08 1015.16 1015.24
1001.97 1001.82 1002.51 1003.08 1003.06 1001.40 1000.48 998.74 997.09 996.89 996.88 996.87 997.06 996.94 997.07 997.54 998.02 999.05 999.96 1001.01 1001.69 1002.82 1003.74 1004.99 1005.76 1006.86 1008.08 1008.55 1009.44 1009.82 1010.49 1011.33 1012.46 1013.19 1013.44 1013.34 1013.63 1014.11 1014.50 1014.81 1014.94 1015.11 1015.83 1015.75 1015.55 1015.48 1015.86 1015.78 1015.87
1001.51 1001.56 1001.82 1002.30 1002.39 1001.41 1000.14 998.96 997.65 997.11 997.02 997.08 997.12 996.93 997.33 997.34 998.27 999.20 1000.30 1001.47 1002.63 1003.90 1005.02 1005.82 1006.59 1007.30 1008.60 1009.30 1010.12 1010.62 1011.07 1011.59 1012.18 1012.94 1013.49 1014.03 1014.55 1014.74 1014.99 1015.50 1015.76 1016.11 1016.18 1016.20 1016.14 1016.38 1016.44 1016.26 1015.97
Wind_Speed
3 2 1 4 3 4 5 10 3 4 3 3 5 7 14 5 10 9 6 19 15 26 19 16 18 16 18 19 19 18 18 19 19 18 18 17 17 16 16 15 14 14 13 13 11 10 10 9 10
2 2 4 2 5 3 8 6 15 10 4 10 6 1 4 8 5 7 4 14 17 15 18 15 20 17 18 19 19 19 19 19 19 18 18 17 16 16 15 14 13 13 13 11 10 9 8 8 9
1 2 4 5 5 13 13 11 4 5 4 1 6 4 5 6 2 1 6 19 17 16 15 16 19 19 18 19 18 17 16 17 17 17 16 15 14 13 13 12 11 12 12 10 8 7 7 7 7
2 4 4 4 11 14 18 6 5 2 4 6 3 6 5 3 2 6 15 19 19 17 14 20 20 18 18 19 18 17 16 17 16 16 15 14 13 12 11 10 10 9 9 8 6 5 4 3 4
3 3 2 4 10 9 9 12 3 3 4 4 3 7 5 5 5 14 16 16 17 15 12 17 21 19 18 19 19 17 16 16 16 16 16 15 13 11 10 10 9 9 9 8 7 5 4 3 3
2 3 2 14 12 16 17 6 4 4 6 6 4 6 6 2 7 6 17 17 17 17 13 14 19 19 18 18 18 18 17 16 15 15 15 14 13 11 10 9 8 7 7 7 6 5 4 3 3
6 5 7 5 7 14 10 7 9 3 6 12 6 4 5 4 8 8 2 14 14 15 16 13 12 15 18 17 17 16 16 15 14 13 12 12 11 9 8 7 6 5 5 4 4 4 3 3 4
5 5 5 8 12 18 6 5 2 7 8 2 11 8 8 4 15 12 6 7 12 12 13 14 13 13 10 9 15 15 15 14 13 12 11 11 11 9 8 7 6 5 5 5 5 5 5 5 6
5 4 12 13 10 12 1 2 2 3 7 3 7 5 11 19 19 16 10 7 10 10 11 12 16 14 10 9 11 13 15 13 12 11 10 8 4 5 7 8 8 8 8 8 8 8 7 7 8
6 8 12 5 8 8 5 2 3 3 6 12 9 6 10 22 21 21 17 14 14 14 14 11 14 12 12 9 11 6 8 5 5 5 6 4 5 5 5 7 9 9 9 9 9 9 8 7 3
7 14 14 6 7 9 8 4 5 3 12 9 8 9 8 21 21 21 18 20 20 16 13 12 13 12 13 11 8 5 4 5 4 6 5 5 4 4 3 3 3 3 7 3 5 3 3 5 4
6 10 17 2 14 9 5 3 6 9 15 8 7 8 12 20 20 18 16 15 17 18 16 15 13 13 14 10 8 8 7 6 5 5 6 4 3 4 4 3 4 4 3 4 4 3 4 5 5
7 6 4 13 13 10 8 11 10 16 8 11 8 7 10 16 20 19 18 14 14 15 16 16 16 14 12 13 10 9 8 7 6 5 5 5 4 4 3 4 3 4 3 4 4 4 4 5 5
2 7 15 13 9 5 15 20 15 3 4 8 7 8 10 18 22 18 17 17 15 14 16 16 15 13 14 11 12 9 7 8 7 7 7 8 6 5 4 4 5 4 5 4 4 5 5 6 4
8 8 11 11 3 8 4 19 33 11 11 16 10 9 8 14 8 10 17 18 19 15 16 16 14 13 13 14 13 11 11 9 8 8 10 10 9 7 6 5 4 6 3 4 4 4 4 4 3
6 4 12 9 10 8 13 32 12 7 9 12 10 8 7 9 11 8 11 16 15 14 17 15 13 15 13 12 11 8 8 9 8 7 7 10 9 8 5 4 4 3 4 4 4 3 3 3 3
5 5 8 7 7 7 18 19 14 8 8 10 9 8 6 2 6 9 11 18 20 19 17 16 16 17 15 12 7 6 6 5 5 4 4 8 9 8 5 4 4 4 3 3 3 1 1 0 1
12 4 4 3 4 14 15 17 8 4 12 12 10 9 7 8 8 9 16 14 15 18 18 16 14 10 6 7 5 4 5 5 5 5 7 8 8 9 6 3 5 5 4 3 2 2 1 3 3
12 10 7 4 8 6 19 19 15 6 7 10 10 9 7 6 9 6 11 15 14 13 15 15 11 8 7 5 6 6 5 3 3 4 6 6 5 5 6 3 4 4 3 3 3 2 0 2 3
15 11 13 12 11 7 10 14 10 10 10 10 11 10 9 8 8 13 11 14 17 20 16 12 10 7 7 4 3 3 4 3 3 3 4 7 6 7 9 6 5 5 4 4 2 2 1 1 0
13 17 14 15 13 15 7 8 9 9 9 8 11 9 9 13 14 14 18 16 15 16 16 15 14 10 5 3 4 4 5 4 2 4 3 3 2 2 3 2 4 5 3 3 1 2 3 1 1
13 9 13 13 9 7 5 7 8 10 14 13 12 9 9 10 11 17 18 16 16 18 15 15 12 10 6 7 5 4 4 7 3 3 3 5 6 5 4 7 4 5 3 4 2 2 2 2 1
13 8 8 10 7 4 11 1 8 6 11 14 18 15 9 11 14 18 18 20 19 15 16 15 11 9 8 7 7 4 3 2 2 2 5 6 6 9 4 3 4 3 4 3 6 4 4 2 1
6 4 4 9 5 7 12 7 5 5 15 19 12 9 12 11 10 12 17 18 16 12 9 10 12 9 8 7 7 7 5 4 4 4 6 10 6 5 3 3 6 7 6 7 6 6 8 5 4
5 11 4 6 7 5 9 7 13 7 7 10 14 8 11 10 10 11 17 15 14 15 13 10 9 5 6 5 4 5 5 2 10 10 3 3 6 3 4 5 8 7 7 9 9 8 8 6 5
8 9 5 6 7 8 9 9 10 23 17 6 5 10 10 10 9 12 18 18 18 17 17 15 9 10 9 8 7 4 5 4 5 8 8 5 6 4 8 7 11 11 12 9 7 5 5 5 5
6 11 9 2 2 3 5 7 6 9 8 6 9 9 14 13 9 11 14 15 17 15 13 13 15 13 11 11 10 10 9 12 10 9 8 5 3 8 11 12 12 12 11 7 6 6 8 6 5
5 9 8 2 6 6 6 18 9 3 9 7 5 9 9 9 10 10 14 14 11 12 13 14 16 17 14 14 11 12 14 14 15 10 8 7 9 12 12 11 11 9 8 10 10 6 6 6 5
5 6 3 5 3 5 10 7 1 3 2 6 4 8 10 9 14 15 15 15 16 15 14 14 17 18 16 15 13 14 15 15 12 10 8 10 10 10 11 10 11 11 10 8 7 7 6 6 5
11 6 5 6 5 4 2 5 5 6 6 2 6 7 8 17 18 18 19 18 17 15 14 13 15 18 15 15 14 14 14 14 13 13 12 11 11 11 11 10 10 9 8 7 7 6 5 5 6
Wind_Direction
276 281 53 48 69 69 236 242 263 252 317 176 152 162 193 166 171 208 316 164 142 147 149 155 151 147 136 130 127 126 125 125 123 123 122 125 127 128 130 131 132 131 135 135 138 141 139 137 134
293 128 46 86 135 186 245 191 238 210 222 333 351 96 171 230 243 280 74 125 140 140 140 150 151 148 141 136 134 135 136 135 132 131 131 132 134 136 135 137 138 137 136 139 145 147 142 142 143
245 46 107 153 189 217 239 197 229 212 230 295 311 231 164 236 258 247 110 130 132 139 137 149 152 148 145 140 139 139 136 133 132 131 133 136 137 135 136 138 140 141 141 145 149 149 150 151 147
125 20 13 161 220 243 232 91 113 17 46 179 330 316 296 251 245 155 143 135 142 141 145 150 152 147 146 142 140 138 139 137 136 135 138 139 140 137 136 138 137 142 146 150 155 152 153 159 156
42 64 208 239 246 260 250 250 310 298 291 143 345 284 255 334 43 134 134 140 144 138 148 147 147 148 145 144 144 143 145 141 142 144 147 145 146 144 142 143 145 146 155 158 164 171 178 186 195
101 107 147 230 231 243 255 194 142 202 269 128 234 246 261 111 113 140 144 147 147 138 140 145 147 145 145 148 149 150 148 147 149 151 153 151 153 149 147 147 149 151 161 167 173 183 206 225 222
153 129 217 240 252 246 260 176 223 220 268 253 256 297 281 163 126 109 138 138 139 137 138 144 146 145 147 151 152 151 150 149 151 152 154 154 148 147 149 144 146 151 157 159 172 197 215 249 269
143 140 209 212 225 260 210 185 191 197 252 284 182 232 239 207 131 112 122 122 127 133 137 144 146 145 142 149 151 151 152 152 150 152 153 156 155 153 153 154 162 167 170 172 191 210 219 235 255
140 199 229 224 200 236 358 125 183 214 222 280 208 202 251 133 127 123 124 128 123 131 140 145 149 147 140 139 156 154 155 152 150 152 154 147 140 155 168 174 182 183 186 193 201 209 220 233 248
172 215 225 201 194 248 248 95 351 307 318 294 296 273 310 147 147 145 159 164 156 156 154 152 153 142 145 151 161 141 151 141 138 144 150 145 151 158 179 193 196 199 202 208 214 218 224 239 250
205 232 227 235 229 242 262 255 215 249 272 237 267 302 233 161 159 159 168 179 169 157 155 158 151 148 151 158 152 154 142 155 149 148 152 157 158 178 182 200 206 203 218 221 231 252 239 240 240
253 229 237 159 243 266 248 236 246 218 247 270 304 291 195 168 163 163 164 172 164 164 159 157 155 152 157 152 155 160 165 172 170 165 165 161 167 184 193 206 213 203 204 216 228 224 242 254 256
242 244 270 235 247 263 283 267 254 255 263 283 289 282 214 192 175 169 173 156 153 164 161 162 158 161 151 154 159 167 168 173 166 167 176 165 179 198 195 217 206 212 199 214 219 223 233 244 247
260 222 254 265 254 254 259 273 258 285 249 256 266 272 223 208 185 176 161 161 164 163 166 165 166 160 157 158 161 166 171 173 172 180 185 183 180 192 201 213 223 227 214 217 216 216 222 238 231
263 278 274 243 210 232 201 267 247 251 274 274 274 274 228 204 191 182 174 167 168 171 159 168 158 158 163 169 172 176 180 177 180 186 184 191 190 195 198 197 217 232 224 234 248 260 269 273 289
298 187 246 248 189 225 169 256 257 194 204 248 257 275 235 181 188 198 177 164 163 157 166 164 168 170 170 178 189 187 183 175 179 183 184 191 190 196 204 199 212 217 222 219 217 206 231 235 259
246 240 227 291 203 190 194 254 249 203 207 243 241 252 238 185 161 196 166 168 163 162 163 173 177 179 181 179 174 164 157 179 159 162 190 211 196 181 191 207 191 190 206 200 184 118 159 244 295
223 220 267 202 296 199 236 246 272 278 207 215 238 238 218 157 180 181 152 160 160 163 173 173 180 174 162 161 130 127 171 193 150 170 196 189 208 178 178 200 191 161 176 122 106 131 133 191 259
264 273 287 323 251 245 229 251 244 227 220 224 231 213 203 192 167 160 153 153 154 170 170 178 171 165 160 155 154 178 185 158 149 161 218 183 214 176 161 161 212 154 143 145 130 117 120 354 39
254 255 269 288 287 264 270 251 240 210 215 211 219 230 207 136 137 158 164 162 169 171 178 177 185 184 187 176 148 148 151 118 138 157 213 217 204 187 180 168 215 145 123 138 124 132 92 9 150
242 249 241 253 287 291 293 279 235 240 212 200 220 209 190 160 157 167 168 178 172 175 181 186 190 194 175 141 102 80 74 64 147 168 156 79 227 112 116 145 188 130 133 108 132 156 146 184 316
229 244 241 234 231 243 162 284 224 221 236 220 232 212 197 162 158 171 173 175 180 189 190 194 186 188 150 141 129 140 154 173 200 150 102 114 107 50 21 215 150 128 111 107 100 90 85 116 283
224 210 254 262 258 336 272 310 267 191 223 225 220 212 185 194 165 167 175 180 189 180 188 193 191 197 140 145 150 133 119 37 8 3 116 59 70 51 205 139 101 92 81 79 62 51 43 62 35
145 166 259 232 261 241 235 186 266 205 207 224 225 181 179 193 198 157 177 174 182 186 189 190 189 191 132 147 159 165 144 121 55 355 59 64 50 20 333 91 96 67 61 63 67 61 54 41 50
121 155 199 182 214 227 199 204 244 241 226 214 215 179 178 192 180 139 155 169 174 176 183 186 182 139 122 169 171 182 210 97 94 47 38 3 67 205 73 64 69 65 68 60 56 51 47 34 43
173 179 167 176 172 212 194 211 239 234 252 262 268 174 181 187 181 160 155 162 171 175 180 178 142 108 117 130 114 101 117 123 107 126 104 122 161 138 103 83 67 57 55 53 55 53 52 47 42
182 191 189 130 236 113 188 257 303 234 253 223 217 181 193 190 168 152 151 154 161 165 166 142 119 120 113 100 91 76 87 101 97 76 84 108 116 81 67 67 67 57 55 56 61 55 38 35 19
173 157 173 209 176 182 183 220 219 190 205 241 253 202 187 178 140 143 140 133 126 125 114 109 110 104 104 94 91 89 88 87 88 89 88 80 68 73 73 69 70 72 59 45 40 40 24 25 6
170 179 161 130 242 189 174 233 255 184 303 264 286 210 176 134 131 131 124 125 122 117 106 108 101 101 98 95 94 98 91 92 101 105 98 79 77 79 82 78 71 59 51 40 39 29 21 17 352
236 173 159 134 217 238 182 257 288 260 241 251 262 189 145 136 131 127 124 120 111 104 105 106 107 96 98 98 101 91 93 87 82 79 74 74 78 72 75 74 71 62 48 36 37 26 3 1 356